Location: Akdamlar
(36.8729°N, 30.5187°E)
Time: 20:13:58
(UTC+00:00)

CZ-4 R/B - Pass Details

Date: 18 September 2020
Orbit: 530 x 600 km, 97.7° (Epoch: 24 October)

Event Time Altitude Azimuth Distance (km) Brightness Sun altitude
Rises 17:05:07 0° 186° (S) 2,827 4.9 -13.6°
Reaches altitude 10° 17:07:24 10° 194° (SSW) 1,933 4.1 -14.1°
Maximum altitude 17:11:18 37° 262° (W) 947 3.1 -14.8°
Drops below altitude 10° 17:15:13 10° 330° (NNW) 1,943 4.7 -15.6°
Sets 17:17:32 0° 339° (NNW) 2,845 5.5 -16.1°
